Location: Coopersdale
(40.3556°N, 78.9372°W)
Time: 15:23:22
(UTC+00:00)

Vanguard 3 - All Passes

Search period start: 25 January 2021 00:00
Search period end: 04 February 2021 00:00
Orbit: 508 x 3261 km, 33.3° (Epoch: 24 January)

Date Brightness Start Highest point End Pass type
(mag) Time Alt. Az. Time Alt. Az. Time Alt. Az.
25 Jan - 07:04:20 10° S 07:07:56 19° SE 07:12:46 10° E visible
25 Jan - 09:12:35 10° WSW 09:18:44 50° SSE 09:29:32 10° E visible
25 Jan - 11:22:58 10° W 11:31:28 57° S 11:46:24 10° ESE visible
25 Jan - 13:34:44 10° W 13:45:32 41° SSW 14:01:43 10° SE daylight
25 Jan - 15:50:15 10° WSW 15:59:59 19° SW 16:11:30 10° S daylight
26 Jan - 07:59:57 10° SW 08:04:49 35° SSE 08:12:38 10° E visible
26 Jan - 10:09:38 10° WSW 10:16:35 57° S 10:29:04 10° ESE visible
26 Jan - 12:20:35 10° W 12:29:54 48° SSW 12:45:19 10° SE daylight
26 Jan - 14:33:40 10° W 14:44:09 27° SSW 14:58:12 10° SSE daylight
27 Jan - 06:48:03 10° SSW 06:51:26 19° SE 06:55:56 10° ESE visible
27 Jan - 08:56:36 10° WSW 09:02:14 49° SSE 09:12:01 10° E visible
27 Jan - 11:06:57 10° W 11:14:43 53° S 11:28:22 10° ESE visible
27 Jan - 13:18:42 10° W 13:28:26 35° SSW 13:43:08 10° SSE daylight
27 Jan - 15:35:13 10° WSW 15:42:42 15° SW 15:51:24 10° S daylight
28 Jan - 07:43:55 10° SW 07:48:24 35° SSE 07:55:27 10° E visible
28 Jan - 09:53:41 10° WSW 10:00:01 54° S 10:11:20 10° ESE visible
28 Jan - 12:04:35 10° W 12:13:02 42° SSW 12:27:01 10° SE daylight
28 Jan - 14:17:58 10° WSW 14:27:00 23° SSW 14:39:00 10° SSE daylight
29 Jan - 06:31:47 10° SSW 06:35:00 20° SSE 06:39:12 10° ESE night (unlit)
29 Jan - 08:40:40 10° WSW 08:45:50 48° S 08:54:36 10° E visible
29 Jan - 10:51:01 10° W 10:58:04 47° S 11:10:22 10° ESE visible
29 Jan - 13:02:50 10° W 13:11:28 30° SSW 13:24:22 10° SSE daylight
29 Jan - 15:21:55 10° SW 15:25:34 11° SW 15:29:32 10° SSW daylight
30 Jan - 07:27:54 10° SW 07:32:03 35° SSE 07:38:24 10° E visible
30 Jan - 09:37:46 10° WSW 09:43:34 49° S 09:53:40 10° ESE visible
30 Jan - 11:48:42 10° W 11:56:17 36° SSW 12:08:38 10° SE visible
30 Jan - 14:02:42 10° WSW 14:10:00 18° SSW 14:19:21 10° S daylight
31 Jan - 06:15:34 10° SSW 06:18:39 21° SSE 06:22:34 10° ESE night (unlit)
31 Jan - 08:24:45 10° WSW 08:29:30 45° S 08:37:18 10° ESE visible
31 Jan - 10:35:08 10° W 10:41:31 41° S 10:52:23 10° SE visible
31 Jan - 12:47:13 10° WSW 12:54:40 24° SSW 13:05:25 10° SSE daylight
01 Feb - 07:11:55 10° SW 07:15:47 35° SSE 07:21:27 10° ESE visible
01 Feb - 09:21:54 10° WSW 09:27:10 44° S 09:36:05 10° ESE visible
01 Feb - 11:32:57 10° WSW 11:39:39 30° SSW 11:50:12 10° SE visible
01 Feb - 13:48:19 10° SW 13:53:08 13° SSW 13:58:52 10° S daylight
02 Feb - 05:59:21 10° SSW 06:02:22 22° SSE 06:06:02 10° ESE night (unlit)
02 Feb - 08:08:52 10° WSW 08:13:13 42° S 08:20:06 10° ESE visible
02 Feb - 10:19:20 10° WSW 10:25:03 35° SSW 10:34:26 10° SE visible
02 Feb - 12:31:54 10° WSW 12:37:58 19° SSW 12:46:12 10° SSE daylight
03 Feb - 04:47:41 10° S 04:49:00 12° SSE 04:50:22 10° SE night (unlit)
03 Feb - 06:55:55 10° SW 06:59:34 34° S 07:04:37 10° ESE night (unlit)
03 Feb - 09:06:05 10° WSW 09:10:51 38° S 09:18:35 10° ESE visible
03 Feb - 11:17:22 10° WSW 11:23:08 24° SSW 11:31:41 10° SSE visible
